Time,TemperatureF,DewpointF,PressureIn,WindDirection,WindDirectionDegrees,WindSpeedMPH,WindSpeedGustMPH,Humidity,HourlyPrecipIn,Conditions,Clouds,dailyrainin,SoftwareType,DateUTC
2013-01-09 00:00:00,31.5,21.5,30.23,NNE,22,0.0,0.0,66,0.00,,CLR,0.04,VWS V12.08,2013-01-09 05:00:00,
2013-01-09 00:02:00,31.5,21.5,30.23,NNE,23,0.0,0.0,66,0.00,,CLR,0.00,VWS V12.08,2013-01-09 05:02:00,
2013-01-09 00:03:00,31.5,21.5,30.23,NNE,22,0.0,0.0,66,0.00,,CLR,0.00,VWS V12.08,2013-01-09 05:03:00,
2013-01-09 00:08:00,31.7,21.6,30.23,NNE,23,0.0,0.0,66,0.00,,CLR,0.00,VWS V12.08,2013-01-09 05:08:00,
2013-01-09 00:13:00,31.7,21.6,30.23,NNE,22,0.0,0.0,66,0.00,,CLR,0.00,VWS V12.08,2013-01-09 05:13:00,
2013-01-09 00:18:00,31.3,21.3,30.23,NNE,23,0.0,0.0,66,0.00,,CLR,0.00,VWS V12.08,2013-01-09 05:18:00,
2013-01-09 00:23:00,31.1,21.1,30.23,NNE,23,0.0,0.0,66,0.00,,CLR,0.00,VWS V12.08,2013-01-09 05:23:00,
2013-01-09 00:28:00,31.1,21.5,30.23,NNE,22,0.0,0.0,67,0.00,,CLR,0.00,VWS V12.08,2013-01-09 05:28:00,
2013-01-09 00:33:00,31.1,21.5,30.23,NNE,22,0.0,0.0,67,0.00,,CLR,0.00,VWS V12.08,2013-01-09 05:33:00,
2013-01-09 00:38:00,31.0,21.3,30.23,NNE,23,0.0,0.0,67,0.00,,CLR,0.00,VWS V12.08,2013-01-09 05:38:00,
2013-01-09 00:43:00,31.0,21.3,30.23,NNE,22,0.0,0.0,67,0.00,,CLR,0.00,VWS V12.08,2013-01-09 05:43:00,
2013-01-09 00:48:00,31.0,21.6,30.23,NNE,23,0.0,0.0,68,0.00,,CLR,0.00,VWS V12.08,2013-01-09 05:48:00,
2013-01-09 00:53:00,31.1,22.2,30.23,NNE,23,0.0,0.0,69,0.00,,CLR,0.00,VWS V12.08,2013-01-09 05:53:00,
2013-01-09 00:58:00,31.0,22.3,30.23,NNE,23,0.0,0.0,70,0.00,,CLR,0.00,VWS V12.08,2013-01-09 05:58:00,
2013-01-09 01:03:00,31.0,22.0,30.23,NNE,23,0.0,0.0,69,0.00,,CLR,0.00,VWS V12.08,2013-01-09 06:03:00,
2013-01-09 01:08:00,31.0,22.3,30.23,NNE,22,0.0,0.0,70,0.00,,CLR,0.00,VWS V12.08,2013-01-09 06:08:00,
2013-01-09 01:13:00,31.0,22.0,30.23,NNE,23,0.0,0.0,69,0.00,,CLR,0.00,VWS V12.08,2013-01-09 06:13:00,
2013-01-09 01:18:00,30.8,22.2,30.20,NNE,22,0.0,0.0,70,0.00,,CLR,0.00,VWS V12.08,2013-01-09 06:18:00,
2013-01-09 01:23:00,30.2,21.3,30.20,NNE,23,0.0,0.0,69,0.00,,CLR,0.00,VWS V12.08,2013-01-09 06:23:00,
2013-01-09 01:28:00,30.1,21.5,30.20,NNE,23,0.0,0.0,70,0.00,,CLR,0.00,VWS V12.08,2013-01-09 06:28:00,
2013-01-09 01:33:00,30.1,21.5,30.20,NNE,23,0.0,0.0,70,0.00,,CLR,0.00,VWS V12.08,2013-01-09 06:33:00,
2013-01-09 01:38:00,30.2,22.0,30.20,NNE,23,0.0,0.0,71,0.00,,CLR,0.00,VWS V12.08,2013-01-09 06:38:00,
2013-01-09 01:43:00,30.2,22.0,30.20,NNE,23,0.0,0.0,71,0.00,,CLR,0.00,VWS V12.08,2013-01-09 06:43:00,
2013-01-09 01:48:00,30.2,21.6,30.20,NNE,23,0.0,0.0,70,0.00,,CLR,0.00,VWS V12.08,2013-01-09 06:48:00,
2013-01-09 01:53:00,30.1,21.8,30.20,NNE,23,0.0,0.0,71,0.00,,CLR,0.00,VWS V12.08,2013-01-09 06:53:00,
2013-01-09 01:58:00,30.1,21.8,30.20,NNE,23,0.0,0.0,71,0.00,,CLR,0.00,VWS V12.08,2013-01-09 06:58:00,
2013-01-09 02:03:00,30.1,22.1,30.20,WSW,247,0.0,0.0,72,0.00,,CLR,0.00,VWS V12.08,2013-01-09 07:03:00,
2013-01-09 02:08:00,30.2,22.3,30.20,WSW,247,0.0,0.0,72,0.00,,CLR,0.00,VWS V12.08,2013-01-09 07:08:00,
2013-01-09 02:13:00,30.2,22.3,30.20,WSW,256,0.0,0.0,72,0.00,,CLR,0.00,VWS V12.08,2013-01-09 07:13:00,
2013-01-09 02:18:00,30.4,22.5,30.20,WSW,246,0.0,0.0,72,0.00,,CLR,0.00,VWS V12.08,2013-01-09 07:18:00,
2013-01-09 02:23:00,30.4,22.5,30.20,West,272,0.0,0.0,72,0.00,,CLR,0.00,VWS V12.08,2013-01-09 07:23:00,
2013-01-09 02:28:00,30.6,22.7,30.20,WSW,256,0.0,0.0,72,0.00,,CLR,0.00,VWS V12.08,2013-01-09 07:28:00,
2013-01-09 02:33:00,30.8,22.5,30.20,WSW,244,0.0,0.0,71,0.00,,CLR,0.00,VWS V12.08,2013-01-09 07:33:00,
2013-01-09 02:38:00,31.0,22.3,30.20,WSW,248,0.0,0.0,70,0.00,,CLR,0.00,VWS V12.08,2013-01-09 07:38:00,
2013-01-09 02:43:00,31.0,22.0,30.20,WNW,291,0.0,4.0,69,0.00,,CLR,0.00,VWS V12.08,2013-01-09 07:43:00,
2013-01-09 02:48:00,31.1,22.2,30.23,West,262,0.0,4.0,69,0.00,,CLR,0.00,VWS V12.08,2013-01-09 07:48:00,
2013-01-09 02:53:00,31.1,22.2,30.23,West,268,0.0,0.0,69,0.00,,CLR,0.00,VWS V12.08,2013-01-09 07:53:00,
2013-01-09 02:58:00,31.1,21.8,30.23,WSW,255,0.0,0.0,68,0.00,,CLR,0.00,VWS V12.08,2013-01-09 07:58:00,
2013-01-09 03:03:00,31.0,21.6,30.20,WSW,242,0.0,0.0,68,0.00,,CLR,0.00,VWS V12.08,2013-01-09 08:03:00,
2013-01-09 03:08:00,31.0,21.6,30.20,West,260,0.0,0.0,68,0.00,,CLR,0.00,VWS V12.08,2013-01-09 08:08:00,
2013-01-09 03:13:00,31.0,21.6,30.20,West,264,0.0,0.0,68,0.00,,CLR,0.00,VWS V12.08,2013-01-09 08:13:00,
2013-01-09 03:18:00,31.0,21.6,30.23,West,273,0.0,0.0,68,0.00,,CLR,0.00,VWS V12.08,2013-01-09 08:18:00,
2013-01-09 03:23:00,30.6,21.3,30.23,West,265,0.0,0.0,68,0.00,,CLR,0.00,VWS V12.08,2013-01-09 08:23:00,
2013-01-09 03:28:00,30.2,21.3,30.23,WSW,239,0.0,0.0,69,0.00,,CLR,0.00,VWS V12.08,2013-01-09 08:28:00,
2013-01-09 03:33:00,30.2,21.6,30.23,WSW,239,0.0,0.0,70,0.00,,CLR,0.00,VWS V12.08,2013-01-09 08:33:00,
2013-01-09 03:38:00,29.5,21.0,30.23,WSW,239,0.0,0.0,70,0.00,,CLR,0.00,VWS V12.08,2013-01-09 08:38:00,
2013-01-09 03:43:00,29.2,20.9,30.23,WSW,239,0.0,0.0,71,0.00,,CLR,0.00,VWS V12.08,2013-01-09 08:43:00,
2013-01-09 03:48:00,29.0,21.4,30.23,WSW,239,0.0,0.0,73,0.00,,CLR,0.00,VWS V12.08,2013-01-09 08:48:00,
2013-01-09 03:53:00,29.3,22.4,30.23,SW,236,0.0,0.0,75,0.00,,CLR,0.00,VWS V12.08,2013-01-09 08:53:00,
2013-01-09 03:58:00,29.7,23.1,30.23,SW,234,0.0,0.0,76,0.00,,CLR,0.00,VWS V12.08,2013-01-09 08:58:00,
2013-01-09 04:03:00,30.1,23.1,30.20,WSW,237,0.0,0.0,75,0.00,,CLR,0.00,VWS V12.08,2013-01-09 09:03:00,
2013-01-09 04:08:00,30.4,23.1,30.20,WSW,250,0.0,0.0,74,0.00,,CLR,0.00,VWS V12.08,2013-01-09 09:08:00,
2013-01-09 04:13:00,30.4,22.8,30.20,WSW,251,0.0,0.0,73,0.00,,CLR,0.00,VWS V12.08,2013-01-09 09:13:00,
2013-01-09 04:18:00,30.2,22.3,30.20,WSW,237,0.0,0.0,72,0.00,,CLR,0.00,VWS V12.08,2013-01-09 09:18:00,
2013-01-09 04:23:00,30.2,22.3,30.20,WSW,243,0.0,0.0,72,0.00,,CLR,0.00,VWS V12.08,2013-01-09 09:23:00,
2013-01-09 04:28:00,30.2,22.0,30.20,WSW,242,0.0,0.0,71,0.00,,CLR,0.00,VWS V12.08,2013-01-09 09:28:00,
2013-01-09 04:33:00,30.1,21.8,30.20,WSW,251,0.0,0.0,71,0.00,,CLR,0.00,VWS V12.08,2013-01-09 09:33:00,
2013-01-09 04:38:00,30.1,22.1,30.20,West,271,0.0,0.0,72,0.00,,CLR,0.00,VWS V12.08,2013-01-09 09:38:00,
2013-01-09 04:43:00,29.9,22.0,30.20,West,263,0.0,2.7,72,0.00,,CLR,0.00,VWS V12.08,2013-01-09 09:43:00,
2013-01-09 04:48:00,29.9,22.0,30.20,WSW,240,0.0,0.0,72,0.00,,CLR,0.00,VWS V12.08,2013-01-09 09:48:00,
2013-01-09 04:53:00,29.9,22.0,30.20,West,261,0.0,0.0,72,0.00,,CLR,0.00,VWS V12.08,2013-01-09 09:53:00,
2013-01-09 04:58:00,29.7,22.1,30.20,West,265,0.0,0.0,73,0.00,,CLR,0.00,VWS V12.08,2013-01-09 09:58:00,
2013-01-09 05:03:00,29.9,22.3,30.20,WSW,242,0.0,0.0,73,0.00,,CLR,0.00,VWS V12.08,2013-01-09 10:03:00,
2013-01-09 05:08:00,30.1,22.5,30.20,West,260,0.0,0.0,73,0.00,,CLR,0.00,VWS V12.08,2013-01-09 10:08:00,
2013-01-09 05:13:00,30.1,22.5,30.20,WSW,244,0.0,0.0,73,0.00,,CLR,0.00,VWS V12.08,2013-01-09 10:13:00,
2013-01-09 05:18:00,30.2,22.6,30.20,WSW,253,0.0,0.0,73,0.00,,CLR,0.00,VWS V12.08,2013-01-09 10:18:00,
2013-01-09 05:23:00,30.4,22.8,30.20,WSW,243,0.0,0.0,73,0.00,,CLR,0.00,VWS V12.08,2013-01-09 10:23:00,
2013-01-09 05:28:00,30.6,22.7,30.20,WSW,258,0.0,0.0,72,0.00,,CLR,0.00,VWS V12.08,2013-01-09 10:28:00,
2013-01-09 05:33:00,30.6,22.7,30.20,WSW,240,0.0,0.0,72,0.00,,CLR,0.00,VWS V12.08,2013-01-09 10:33:00,
2013-01-09 05:38:00,30.8,22.5,30.20,WSW,241,0.0,0.0,71,0.00,,CLR,0.00,VWS V12.08,2013-01-09 10:38:00,
2013-01-09 05:43:00,31.0,22.3,30.20,WSW,240,0.0,0.0,70,0.00,,CLR,0.00,VWS V12.08,2013-01-09 10:43:00,
2013-01-09 05:48:00,31.1,22.5,30.20,WSW,240,0.0,0.0,70,0.00,,BKN095,0.00,VWS V12.08,2013-01-09 10:48:00,
2013-01-09 05:53:00,31.1,22.5,30.20,WSW,241,0.0,0.0,70,0.00,,BKN095,0.00,VWS V12.08,2013-01-09 10:53:00,
2013-01-09 05:58:00,31.3,22.3,30.20,SW,233,0.0,0.0,69,0.00,,BKN095,0.00,VWS V12.08,2013-01-09 10:58:00,
2013-01-09 06:03:00,31.3,22.3,30.20,WSW,255,0.0,0.0,69,0.00,,BKN095,0.00,VWS V12.08,2013-01-09 11:03:00,
2013-01-09 06:08:00,31.0,22.3,30.20,WSW,252,0.0,0.0,70,0.00,,BKN095,0.00,VWS V12.08,2013-01-09 11:08:00,
2013-01-09 06:13:00,31.0,22.3,30.20,WSW,246,0.0,0.0,70,0.00,,BKN095,0.00,VWS V12.08,2013-01-09 11:13:00,
2013-01-09 06:18:00,30.8,22.2,30.20,WSW,241,0.0,0.0,70,0.00,,BKN095,0.00,VWS V12.08,2013-01-09 11:18:00,
2013-01-09 06:23:00,30.8,22.2,30.20,SW,231,0.0,0.0,70,0.00,,BKN095,0.00,VWS V12.08,2013-01-09 11:23:00,
2013-01-09 06:28:00,30.6,22.0,30.20,WNW,289,0.0,0.0,70,0.00,,BKN095,0.00,VWS V12.08,2013-01-09 11:28:00,
2013-01-09 06:33:00,30.6,22.0,30.20,WSW,249,0.0,0.0,70,0.00,,BKN095,0.00,VWS V12.08,2013-01-09 11:33:00,
2013-01-09 06:38:00,31.0,22.3,30.20,WSW,249,0.0,0.0,70,0.00,,BKN095,0.00,VWS V12.08,2013-01-09 11:38:00,
2013-01-09 06:43:00,31.1,22.5,30.20,WSW,240,0.0,0.0,70,0.00,,BKN095,0.00,VWS V12.08,2013-01-09 11:43:00,
2013-01-09 06:48:00,30.8,22.2,30.23,WSW,237,4.0,4.0,70,0.00,,SCT100,0.00,VWS V12.08,2013-01-09 11:48:00,
2013-01-09 06:53:00,30.8,22.2,30.23,WSW,250,0.0,0.0,70,0.00,,SCT100,0.00,VWS V12.08,2013-01-09 11:53:00,
2013-01-09 06:58:00,30.8,22.5,30.23,WNW,288,0.0,0.0,71,0.00,,SCT100,0.00,VWS V12.08,2013-01-09 11:58:00,
2013-01-09 07:03:00,30.8,22.5,30.23,West,268,2.2,2.2,71,0.00,,SCT100,0.00,VWS V12.08,2013-01-09 12:03:00,
2013-01-09 07:08:00,31.0,22.7,30.23,SE,144,0.0,3.1,71,0.00,,SCT100,0.00,VWS V12.08,2013-01-09 12:08:00,
2013-01-09 07:13:00,31.1,22.5,30.23,WSW,249,0.0,2.7,70,0.00,,SCT100,0.00,VWS V12.08,2013-01-09 12:13:00,
2013-01-09 07:18:00,31.5,22.9,30.23,West,271,0.0,0.0,70,0.00,,SCT100,0.00,VWS V12.08,2013-01-09 12:18:00,
2013-01-09 07:23:00,31.7,22.7,30.23,WNW,284,3.1,3.1,69,0.00,,SCT100,0.00,VWS V12.08,2013-01-09 12:23:00,
2013-01-09 07:28:00,32.0,22.7,30.23,WSW,258,0.0,0.0,68,0.00,,SCT100,0.00,VWS V12.08,2013-01-09 12:28:00,
2013-01-09 07:33:00,32.4,22.7,30.23,SW,234,0.0,0.0,67,0.00,,SCT100,0.00,VWS V12.08,2013-01-09 12:33:00,
2013-01-09 07:38:00,32.4,22.7,30.23,West,259,0.0,2.2,67,0.00,,SCT100,0.00,VWS V12.08,2013-01-09 12:38:00,
2013-01-09 07:43:00,32.4,22.7,30.23,SW,235,0.0,2.7,67,0.00,,SCT100,0.00,VWS V12.08,2013-01-09 12:43:00,
2013-01-09 07:48:00,32.4,22.7,30.20,WSW,248,0.0,0.0,67,0.00,,SCT100,0.00,VWS V12.08,2013-01-09 12:48:00,
2013-01-09 07:53:00,32.2,22.5,30.20,WNW,296,2.2,2.2,67,0.00,,SCT100,0.00,VWS V12.08,2013-01-09 12:53:00,
2013-01-09 07:58:00,32.4,23.0,30.20,West,277,3.6,4.0,68,0.00,,SCT100,0.00,VWS V12.08,2013-01-09 12:58:00,
2013-01-09 08:03:00,32.8,23.7,30.23,NW,304,3.1,4.0,69,0.00,,CLR,0.00,VWS V12.08,2013-01-09 13:03:00,
2013-01-09 08:08:00,33.5,24.8,30.23,SSW,201,0.0,0.0,70,0.00,,CLR,0.00,VWS V12.08,2013-01-09 13:08:00,
2013-01-09 08:13:00,34.2,24.8,30.23,West,260,2.7,3.6,68,0.00,,CLR,0.00,VWS V12.08,2013-01-09 13:13:00,
2013-01-09 08:18:00,34.6,24.4,30.23,WSW,238,2.7,3.1,66,0.00,,CLR,0.00,VWS V12.08,2013-01-09 13:18:00,
2013-01-09 08:23:00,34.7,24.2,30.23,West,263,3.1,4.0,65,0.00,,CLR,0.00,VWS V12.08,2013-01-09 13:23:00,
2013-01-09 08:28:00,35.5,25.2,30.23,WNW,297,0.0,3.1,66,0.00,,CLR,0.00,VWS V12.08,2013-01-09 13:28:00,
2013-01-09 08:33:00,36.2,25.2,30.23,SW,232,2.7,4.9,64,0.00,,CLR,0.00,VWS V12.08,2013-01-09 13:33:00,
2013-01-09 08:38:00,36.9,25.1,30.23,SSW,212,4.0,4.0,62,0.00,,CLR,0.00,VWS V12.08,2013-01-09 13:38:00,
2013-01-09 08:43:00,37.3,25.5,30.23,SW,217,3.1,4.9,62,0.00,,CLR,0.00,VWS V12.08,2013-01-09 13:43:00,
2013-01-09 08:48:00,37.8,25.6,30.26,SW,231,2.7,4.0,61,0.00,,OVC085,0.00,VWS V12.08,2013-01-09 13:48:00,
2013-01-09 08:53:00,38.2,25.5,30.26,WSW,240,3.1,4.0,60,0.00,,OVC085,0.00,VWS V12.08,2013-01-09 13:53:00,
2013-01-09 08:58:00,38.2,25.5,30.26,WSW,238,4.0,4.9,60,0.00,,OVC085,0.00,VWS V12.08,2013-01-09 13:58:00,
2013-01-09 09:03:00,38.5,25.9,30.26,SW,215,4.9,5.4,60,0.00,,OVC085,0.00,VWS V12.08,2013-01-09 14:03:00,
2013-01-09 09:08:00,38.9,25.8,30.26,SW,231,3.6,4.0,59,0.00,,OVC085,0.00,VWS V12.08,2013-01-09 14:08:00,
2013-01-09 09:13:00,39.2,26.1,30.26,SW,232,2.7,3.6,59,0.00,,OVC085,0.00,VWS V12.08,2013-01-09 14:13:00,
2013-01-09 09:18:00,39.8,26.6,30.26,SW,235,3.1,4.0,59,0.00,,OVC085,0.00,VWS V12.08,2013-01-09 14:18:00,
2013-01-09 09:23:00,39.8,26.2,30.26,WSW,239,3.6,4.0,58,0.00,,OVC085,0.00,VWS V12.08,2013-01-09 14:23:00,
2013-01-09 09:28:00,40.3,27.1,30.26,SW,229,4.0,4.0,59,0.00,,OVC085,0.00,VWS V12.08,2013-01-09 14:28:00,
2013-01-09 09:33:00,41.0,27.4,30.26,SSW,206,3.1,6.3,58,0.00,,OVC085,0.00,VWS V12.08,2013-01-09 14:33:00,
2013-01-09 09:38:00,41.6,27.9,30.26,SSW,202,6.7,6.7,58,0.00,,OVC085,0.00,VWS V12.08,2013-01-09 14:38:00,
2013-01-09 09:43:00,41.8,27.7,30.26,SW,232,4.5,4.9,57,0.00,,OVC085,0.00,VWS V12.08,2013-01-09 14:43:00,
2013-01-09 09:48:00,42.1,28.0,30.26,WSW,250,5.4,6.3,57,0.00,,OVC040,0.00,VWS V12.08,2013-01-09 14:48:00,
2013-01-09 09:53:00,42.5,28.3,30.26,SW,232,3.6,4.9,57,0.00,,OVC040,0.00,VWS V12.08,2013-01-09 14:53:00,
2013-01-09 09:58:00,42.7,28.1,30.26,SSW,210,4.9,5.4,56,0.00,,OVC040,0.00,VWS V12.08,2013-01-09 14:58:00,
2013-01-09 10:03:00,42.7,28.5,30.26,SW,221,2.7,5.4,57,0.00,,OVC040,0.00,VWS V12.08,2013-01-09 15:03:00,
2013-01-09 10:08:00,43.2,29.0,30.26,SW,222,3.6,5.4,57,0.00,,OVC040,0.00,VWS V12.08,2013-01-09 15:08:00,
2013-01-09 10:13:00,43.7,29.1,30.26,WSW,246,4.0,5.4,56,0.00,,OVC040,0.00,VWS V12.08,2013-01-09 15:13:00,
2013-01-09 10:18:00,44.3,29.1,30.26,SW,224,3.6,4.0,55,0.00,,OVC040,0.00,VWS V12.08,2013-01-09 15:18:00,
2013-01-09 10:23:00,44.5,28.9,30.26,SW,224,3.6,4.0,54,0.00,,OVC040,0.00,VWS V12.08,2013-01-09 15:23:00,
2013-01-09 10:28:00,44.8,29.2,30.26,SSW,213,4.0,4.0,54,0.00,,OVC040,0.00,VWS V12.08,2013-01-09 15:28:00,
2013-01-09 10:33:00,44.8,29.2,30.26,SW,225,3.6,4.0,54,0.00,,OVC040,0.00,VWS V12.08,2013-01-09 15:33:00,
2013-01-09 10:38:00,44.8,29.2,30.26,SW,231,3.6,4.9,54,0.00,,OVC040,0.00,VWS V12.08,2013-01-09 15:38:00,
2013-01-09 10:43:00,44.8,29.6,30.26,SW,218,4.0,4.9,55,0.00,,OVC040,0.00,VWS V12.08,2013-01-09 15:43:00,
2013-01-09 10:48:00,45.0,29.4,30.29,WSW,246,3.6,4.9,54,0.00,,OVC090,0.00,VWS V12.08,2013-01-09 15:48:00,
2013-01-09 10:53:00,45.4,30.2,30.29,SSW,213,3.6,4.9,55,0.00,,OVC090,0.00,VWS V12.08,2013-01-09 15:53:00,
2013-01-09 10:58:00,45.7,30.0,30.29,SSW,196,3.1,4.0,54,0.00,,OVC090,0.00,VWS V12.08,2013-01-09 15:58:00,
2013-01-09 11:03:00,46.1,29.9,30.26,SW,225,4.9,4.9,53,0.00,,OVC090,0.00,VWS V12.08,2013-01-09 16:03:00,
2013-01-09 11:08:00,46.4,30.2,30.26,SW,214,4.0,5.4,53,0.00,,OVC090,0.00,VWS V12.08,2013-01-09 16:08:00,
2013-01-09 11:13:00,46.8,30.1,30.26,WNW,284,3.1,4.9,52,0.00,,OVC090,0.00,VWS V12.08,2013-01-09 16:13:00,
2013-01-09 11:18:00,47.0,30.3,30.26,SW,216,4.0,4.9,52,0.00,,OVC090,0.00,VWS V12.08,2013-01-09 16:18:00,
2013-01-09 11:23:00,46.8,30.1,30.26,SSW,197,4.0,5.4,52,0.00,,OVC090,0.00,VWS V12.08,2013-01-09 16:23:00,
2013-01-09 11:28:00,46.8,30.6,30.26,SW,220,3.6,4.9,53,0.00,,OVC090,0.00,VWS V12.08,2013-01-09 16:28:00,
2013-01-09 11:33:00,47.2,30.9,30.26,SW,218,5.8,5.8,53,0.00,,OVC090,0.00,VWS V12.08,2013-01-09 16:33:00,
2013-01-09 11:38:00,47.3,31.1,30.26,WSW,241,4.5,4.9,53,0.00,,OVC090,0.00,VWS V12.08,2013-01-09 16:38:00,
2013-01-09 11:43:00,47.2,30.9,30.26,WSW,244,4.5,5.8,53,0.00,,OVC090,0.00,VWS V12.08,2013-01-09 16:43:00,
2013-01-09 11:48:00,47.0,31.2,30.26,SSW,205,5.4,7.6,54,0.00,,OVC044,0.00,VWS V12.08,2013-01-09 16:48:00,
2013-01-09 11:53:00,47.0,31.7,30.26,SW,223,4.9,6.3,55,0.00,,OVC044,0.00,VWS V12.08,2013-01-09 16:53:00,
2013-01-09 11:58:00,47.0,31.7,30.26,WSW,246,5.4,5.4,55,0.00,,OVC044,0.00,VWS V12.08,2013-01-09 16:58:00,
2013-01-09 12:03:00,46.8,32.0,30.26,SW,226,4.0,5.4,56,0.00,,OVC044,0.00,VWS V12.08,2013-01-09 17:03:00,
2013-01-09 12:08:00,46.4,32.5,30.26,SSW,212,4.9,5.4,58,0.00,,OVC044,0.00,VWS V12.08,2013-01-09 17:08:00,
2013-01-09 12:13:00,46.4,33.3,30.26,SW,226,4.0,4.0,60,0.00,,OVC044,0.00,VWS V12.08,2013-01-09 17:13:00,
2013-01-09 12:18:00,46.3,34.4,30.26,SW,215,5.4,5.8,63,0.00,,OVC044,0.00,VWS V12.08,2013-01-09 17:18:00,
2013-01-09 12:23:00,46.1,35.0,30.26,SW,224,5.4,5.8,65,0.00,,OVC044,0.00,VWS V12.08,2013-01-09 17:23:00,
2013-01-09 12:28:00,45.7,36.2,30.26,South,183,3.6,7.6,69,0.00,,OVC044,0.00,VWS V12.08,2013-01-09 17:28:00,
2013-01-09 12:33:00,45.5,37.4,30.23,South,178,8.1,8.1,73,0.00,,OVC044,0.00,VWS V12.08,2013-01-09 17:33:00,
2013-01-09 12:38:00,45.5,38.4,30.23,WSW,239,5.4,8.3,76,0.00,,OVC044,0.00,VWS V12.08,2013-01-09 17:38:00,
2013-01-09 12:43:00,45.5,39.7,30.23,SW,232,5.4,8.1,80,0.00,,OVC044,0.00,VWS V12.08,2013-01-09 17:43:00,
2013-01-09 12:48:00,45.9,40.4,30.20,WSW,248,5.8,5.8,81,0.00,,OVC034,0.00,VWS V12.08,2013-01-09 17:48:00,
2013-01-09 12:53:00,45.9,40.4,30.20,WSW,241,5.8,6.3,81,0.00,,OVC034,0.00,VWS V12.08,2013-01-09 17:53:00,
2013-01-09 12:58:00,45.9,40.7,30.20,SW,218,6.3,8.3,82,0.00,,OVC034,0.00,VWS V12.08,2013-01-09 17:58:00,
2013-01-09 13:03:00,45.9,40.7,30.23,SW,224,4.9,6.7,82,0.00,,OVC034,0.00,VWS V12.08,2013-01-09 18:03:00,
2013-01-09 13:08:00,45.9,40.7,30.23,SSW,208,6.3,8.3,82,0.00,,OVC034,0.00,VWS V12.08,2013-01-09 18:08:00,
2013-01-09 13:13:00,45.9,41.0,30.23,SSW,207,6.3,6.3,83,0.00,,OVC034,0.00,VWS V12.08,2013-01-09 18:13:00,
2013-01-09 13:18:00,45.9,41.3,30.23,South,189,5.4,8.3,84,0.00,,OVC034,0.00,VWS V12.08,2013-01-09 18:18:00,
2013-01-09 13:23:00,46.3,42.0,30.23,WSW,243,5.8,7.6,85,0.00,,OVC034,0.00,VWS V12.08,2013-01-09 18:23:00,
2013-01-09 13:28:00,46.3,42.0,30.23,SSW,197,0.0,0.0,85,0.00,,OVC034,0.00,VWS V12.08,2013-01-09 18:28:00,
2013-01-09 13:33:00,46.3,42.3,30.23,SW,218,0.0,0.0,86,0.00,,OVC034,0.00,VWS V12.08,2013-01-09 18:33:00,
2013-01-09 13:38:00,46.3,42.3,30.23,WNW,291,0.0,0.0,86,0.00,,OVC034,0.00,VWS V12.08,2013-01-09 18:38:00,
2013-01-09 13:41:00,46.4,42.5,30.23,SW,232,0.0,0.0,86,0.00,,OVC034,0.00,VWS V12.08,2013-01-09 18:41:00,
2013-01-09 13:44:00,46.4,42.8,30.23,SSW,211,0.0,0.0,87,0.00,,OVC034,0.00,VWS V12.08,2013-01-09 18:44:00,
2013-01-09 13:48:00,46.4,43.4,30.23,SW,220,0.0,0.0,89,0.00,,-RA,0.00,VWS V12.08,2013-01-09 18:48:00,
2013-01-09 13:49:00,46.4,43.4,30.23,SSW,211,0.0,0.0,89,0.00,,-RA,0.00,VWS V12.08,2013-01-09 18:49:00,
2013-01-09 13:54:00,46.4,44.0,30.23,SW,221,0.0,0.0,91,0.00,,-RA,0.00,VWS V12.08,2013-01-09 18:54:00,
2013-01-09 13:59:00,46.4,44.2,30.23,SW,228,0.0,0.0,92,0.00,,-RA,0.00,VWS V12.08,2013-01-09 18:59:00,
2013-01-09 14:04:00,46.4,44.5,30.23,WSW,249,0.0,0.0,93,0.00,,-RA,0.00,VWS V12.08,2013-01-09 19:04:00,
2013-01-09 14:09:00,46.4,44.8,30.23,SW,222,0.0,0.0,94,0.00,,-RA,0.00,VWS V12.08,2013-01-09 19:09:00,
2013-01-09 14:14:00,46.6,45.3,30.23,SSW,213,0.0,0.0,95,0.00,,-RA,0.00,VWS V12.08,2013-01-09 19:14:00,
2013-01-09 14:19:00,46.6,45.3,30.23,SSW,210,0.0,0.0,95,0.00,,-RA,0.00,VWS V12.08,2013-01-09 19:19:00,
2013-01-09 14:24:00,46.6,45.5,30.23,SSW,203,0.0,0.0,96,0.00,,-RA,0.00,VWS V12.08,2013-01-09 19:24:00,
2013-01-09 14:29:00,46.6,45.5,30.23,SSW,194,0.0,0.0,96,0.00,,-RA,0.00,VWS V12.08,2013-01-09 19:29:00,
2013-01-09 14:34:00,46.8,46.0,30.23,WSW,237,0.0,0.0,97,0.00,,-RA,0.00,VWS V12.08,2013-01-09 19:34:00,
2013-01-09 14:39:00,46.6,45.8,30.23,SW,234,0.0,0.0,97,0.00,,-RA,0.00,VWS V12.08,2013-01-09 19:39:00,
2013-01-09 14:44:00,46.8,46.3,30.23,SW,217,0.0,0.0,98,0.00,,-RA,0.00,VWS V12.08,2013-01-09 19:44:00,
2013-01-09 14:49:00,46.8,46.3,30.23,SW,222,0.0,0.0,98,0.00,,-RA,0.00,VWS V12.08,2013-01-09 19:49:00,
2013-01-09 14:54:00,46.8,46.5,30.23,SSW,205,0.0,0.0,99,0.00,,-RA,0.00,VWS V12.08,2013-01-09 19:54:00,
2013-01-09 14:59:00,47.0,46.7,30.23,SW,232,0.0,0.0,99,0.00,,-RA,0.00,VWS V12.08,2013-01-09 19:59:00,
2013-01-09 15:04:00,47.0,46.7,30.23,SW,218,0.0,0.0,99,0.00,,-RA,0.00,VWS V12.08,2013-01-09 20:04:00,
2013-01-09 15:09:00,47.0,46.5,30.23,SW,217,0.0,0.0,98,0.00,,-RA,0.00,VWS V12.08,2013-01-09 20:09:00,
2013-01-09 15:14:00,47.2,46.6,30.23,SSW,209,0.0,0.0,98,0.00,,-RA,0.00,VWS V12.08,2013-01-09 20:14:00,
2013-01-09 15:19:00,47.0,46.2,30.23,SSW,203,0.0,0.0,97,0.00,,-RA,0.00,VWS V12.08,2013-01-09 20:19:00,
2013-01-09 15:24:00,47.2,46.3,30.23,SW,224,0.0,0.0,97,0.00,,-RA,0.00,VWS V12.08,2013-01-09 20:24:00,
2013-01-09 15:29:00,47.2,46.1,30.23,SW,214,0.0,0.0,96,0.00,,-RA,0.00,VWS V12.08,2013-01-09 20:29:00,
2013-01-09 15:34:00,47.2,45.8,30.23,SSW,207,0.0,0.0,95,0.00,,-RA,0.00,VWS V12.08,2013-01-09 20:34:00,
2013-01-09 15:39:00,47.2,45.2,30.23,SW,224,0.0,0.0,93,0.00,,-RA,0.00,VWS V12.08,2013-01-09 20:39:00,
2013-01-09 15:44:00,47.2,45.0,30.26,SW,229,0.0,0.0,92,0.00,,-RA,0.00,VWS V12.08,2013-01-09 20:44:00,
2013-01-09 15:49:00,47.0,44.5,30.26,SW,216,0.0,0.0,91,0.00,,-RA,0.00,VWS V12.08,2013-01-09 20:49:00,
2013-01-09 15:54:00,47.0,44.5,30.26,SSW,199,0.0,0.0,91,0.00,,-RA,0.00,VWS V12.08,2013-01-09 20:54:00,
2013-01-09 15:59:00,46.8,44.0,30.26,SW,229,0.0,0.0,90,0.00,,-RA,0.00,VWS V12.08,2013-01-09 20:59:00,
2013-01-09 16:04:00,47.0,43.9,30.26,West,268,0.0,0.0,89,0.00,,,0.00,VWS V12.08,2013-01-09 21:04:00,
2013-01-09 16:09:00,46.8,43.1,30.26,SW,229,0.0,0.0,87,0.00,,,0.00,VWS V12.08,2013-01-09 21:09:00,
2013-01-09 16:14:00,46.8,42.5,30.26,SSW,209,0.0,0.0,85,0.00,,,0.00,VWS V12.08,2013-01-09 21:14:00,
2013-01-09 16:19:00,46.8,42.2,30.26,SW,220,0.0,0.0,84,0.00,,,0.00,VWS V12.08,2013-01-09 21:19:00,
2013-01-09 16:24:00,46.6,41.7,30.26,SW,236,0.0,0.0,83,0.00,,,0.00,VWS V12.08,2013-01-09 21:24:00,
2013-01-09 16:29:00,46.4,41.6,30.26,SSW,196,0.0,0.0,83,0.00,,,0.00,VWS V12.08,2013-01-09 21:29:00,
2013-01-09 16:34:00,46.4,41.9,30.26,SW,219,0.0,0.0,84,0.00,,,0.00,VWS V12.08,2013-01-09 21:34:00,
2013-01-09 16:39:00,46.4,41.9,30.26,SW,220,0.0,0.0,84,0.00,,,0.00,VWS V12.08,2013-01-09 21:39:00,
2013-01-09 16:44:00,46.3,41.7,30.26,SSW,208,0.0,0.0,84,0.00,,,0.00,VWS V12.08,2013-01-09 21:44:00,
2013-01-09 16:49:00,46.1,41.5,30.26,WSW,243,0.0,0.0,84,0.00,,OVC025,0.00,VWS V12.08,2013-01-09 21:49:00,
2013-01-09 16:54:00,45.9,41.3,30.26,SW,224,0.0,0.0,84,0.00,,OVC025,0.00,VWS V12.08,2013-01-09 21:54:00,
2013-01-09 16:59:00,45.9,41.3,30.26,SW,229,0.0,0.0,84,0.00,,OVC025,0.00,VWS V12.08,2013-01-09 21:59:00,
2013-01-09 17:04:00,45.9,41.3,30.26,SSW,212,0.0,0.0,84,0.00,,OVC025,0.00,VWS V12.08,2013-01-09 22:04:00,
2013-01-09 17:09:00,45.9,41.0,30.26,SW,226,0.0,0.0,83,0.00,,OVC025,0.00,VWS V12.08,2013-01-09 22:09:00,
2013-01-09 17:14:00,45.5,41.0,30.29,SW,223,0.0,0.0,84,0.00,,OVC025,0.00,VWS V12.08,2013-01-09 22:14:00,
2013-01-09 17:19:00,45.5,41.0,30.29,SW,229,0.0,0.0,84,0.00,,OVC025,0.00,VWS V12.08,2013-01-09 22:19:00,
2013-01-09 17:24:00,45.4,40.8,30.29,SW,228,0.0,0.0,84,0.00,,OVC025,0.00,VWS V12.08,2013-01-09 22:24:00,
2013-01-09 17:29:00,45.2,40.6,30.29,SW,231,0.0,0.0,84,0.00,,OVC025,0.00,VWS V12.08,2013-01-09 22:29:00,
2013-01-09 17:34:00,45.0,40.8,30.29,SW,217,0.0,0.0,85,0.00,,OVC025,0.00,VWS V12.08,2013-01-09 22:34:00,
2013-01-09 17:39:00,44.6,40.4,30.29,WSW,251,0.0,0.0,85,0.00,,OVC025,0.00,VWS V12.08,2013-01-09 22:39:00,
2013-01-09 17:44:00,44.6,40.4,30.29,SW,215,0.0,0.0,85,0.00,,OVC025,0.00,VWS V12.08,2013-01-09 22:44:00,
2013-01-09 17:49:00,44.5,40.5,30.29,SSW,195,0.0,0.0,86,0.00,,BKN019,0.00,VWS V12.08,2013-01-09 22:49:00,
2013-01-09 17:54:00,44.5,40.5,30.29,SW,232,0.0,0.0,86,0.00,,BKN019,0.00,VWS V12.08,2013-01-09 22:54:00,
2013-01-09 17:59:00,44.5,40.5,30.32,WSW,248,0.0,0.0,86,0.00,,BKN019,0.00,VWS V12.08,2013-01-09 22:59:00,
2013-01-09 18:04:00,44.5,40.8,30.32,SW,221,0.0,0.0,87,0.00,,FEW019,0.00,VWS V12.08,2013-01-09 23:04:00,
2013-01-09 18:09:00,44.3,40.7,30.32,SW,220,0.0,0.0,87,0.00,,FEW019,0.00,VWS V12.08,2013-01-09 23:09:00,
2013-01-09 18:14:00,44.1,40.8,30.32,SSW,211,0.0,0.0,88,0.00,,FEW019,0.00,VWS V12.08,2013-01-09 23:14:00,
2013-01-09 18:19:00,43.9,40.6,30.32,SW,217,0.0,0.0,88,0.00,,FEW019,0.00,VWS V12.08,2013-01-09 23:19:00,
2013-01-09 18:24:00,44.1,41.1,30.32,SW,225,0.0,0.0,89,0.00,,FEW019,0.00,VWS V12.08,2013-01-09 23:24:00,
2013-01-09 18:29:00,43.7,40.4,30.32,SW,223,0.0,0.0,88,0.00,,FEW019,0.00,VWS V12.08,2013-01-09 23:29:00,
2013-01-09 18:34:00,43.7,40.4,30.32,SSW,209,0.0,0.0,88,0.00,,FEW019,0.00,VWS V12.08,2013-01-09 23:34:00,
2013-01-09 18:39:00,43.6,40.5,30.32,SW,227,0.0,0.0,89,0.00,,FEW019,0.00,VWS V12.08,2013-01-09 23:39:00,
2013-01-09 18:44:00,43.6,40.5,30.32,SW,225,0.0,0.0,89,0.00,,FEW019,0.00,VWS V12.08,2013-01-09 23:44:00,
2013-01-09 18:49:00,43.6,40.8,30.32,SSW,206,0.0,0.0,90,0.00,,FEW019,0.00,VWS V12.08,2013-01-09 23:49:00,
2013-01-09 18:54:00,43.6,41.1,30.32,South,179,0.0,0.0,91,0.00,,FEW019,0.00,VWS V12.08,2013-01-09 23:54:00,
2013-01-09 18:59:00,43.7,41.3,30.32,SSW,212,0.0,0.0,91,0.00,,FEW019,0.00,VWS V12.08,2013-01-09 23:59:00,
2013-01-09 19:04:00,43.6,41.1,30.32,SW,223,0.0,0.0,91,0.00,,FEW019,0.00,VWS V12.08,2013-01-10 00:04:00,
2013-01-09 19:09:00,43.7,41.3,30.32,SSW,199,0.0,0.0,91,0.00,,FEW019,0.00,VWS V12.08,2013-01-10 00:09:00,
2013-01-09 19:14:00,43.7,41.3,30.32,SSW,213,0.0,0.0,91,0.00,,FEW019,0.00,VWS V12.08,2013-01-10 00:14:00,
2013-01-09 19:19:00,43.7,41.3,30.32,West,259,0.0,0.0,91,0.00,,CLR,0.00,VWS V12.08,2013-01-10 00:19:00,
2013-01-09 19:24:00,43.6,41.1,30.32,South,187,0.0,0.0,91,0.00,,CLR,0.00,VWS V12.08,2013-01-10 00:24:00,
2013-01-09 19:29:00,43.6,41.1,30.35,SW,224,0.0,0.0,91,0.00,,CLR,0.00,VWS V12.08,2013-01-10 00:29:00,
2013-01-09 19:34:00,43.4,40.9,30.35,SSW,213,0.0,0.0,91,0.00,,CLR,0.00,VWS V12.08,2013-01-10 00:34:00,
2013-01-09 19:39:00,43.4,40.9,30.35,WSW,246,0.0,0.0,91,0.00,,CLR,0.00,VWS V12.08,2013-01-10 00:39:00,
2013-01-09 19:44:00,43.2,41.0,30.35,SW,231,0.0,0.0,92,0.00,,CLR,0.00,VWS V12.08,2013-01-10 00:44:00,
2013-01-09 19:49:00,43.4,41.2,30.35,SW,216,0.0,0.0,92,0.00,,CLR,0.00,VWS V12.08,2013-01-10 00:49:00,
2013-01-09 19:54:00,43.4,41.5,30.35,SSW,208,0.0,0.0,93,0.00,,CLR,0.00,VWS V12.08,2013-01-10 00:54:00,
2013-01-09 19:59:00,43.2,41.6,30.35,South,183,0.0,0.0,94,0.00,,CLR,0.00,VWS V12.08,2013-01-10 00:59:00,
2013-01-09 20:04:00,43.4,41.8,30.35,SSW,198,0.0,0.0,94,0.00,,CLR,0.00,VWS V12.08,2013-01-10 01:04:00,
2013-01-09 20:09:00,43.4,41.8,30.35,SSW,195,0.0,0.0,94,0.00,,CLR,0.00,VWS V12.08,2013-01-10 01:09:00,
2013-01-09 20:14:00,43.2,41.6,30.38,SW,235,0.0,0.0,94,0.00,,CLR,0.00,VWS V12.08,2013-01-10 01:14:00,
2013-01-09 20:19:00,43.2,41.9,30.38,SW,226,0.0,0.0,95,0.00,,CLR,0.00,VWS V12.08,2013-01-10 01:19:00,
2013-01-09 20:24:00,43.2,41.9,30.38,SW,236,0.0,0.0,95,0.00,,CLR,0.00,VWS V12.08,2013-01-10 01:24:00,
2013-01-09 20:29:00,43.2,41.9,30.38,WSW,243,0.0,0.0,95,0.00,,CLR,0.00,VWS V12.08,2013-01-10 01:29:00,
2013-01-09 20:34:00,43.4,42.3,30.38,SW,224,0.0,0.0,96,0.00,,CLR,0.00,VWS V12.08,2013-01-10 01:34:00,
2013-01-09 20:39:00,43.2,42.1,30.38,SW,223,0.0,0.0,96,0.00,,CLR,0.00,VWS V12.08,2013-01-10 01:39:00,
2013-01-09 20:44:00,43.2,42.1,30.38,SW,216,0.0,0.0,96,0.00,,CLR,0.00,VWS V12.08,2013-01-10 01:44:00,
2013-01-09 20:49:00,43.2,42.4,30.38,SSW,213,0.0,0.0,97,0.00,,CLR,0.00,VWS V12.08,2013-01-10 01:49:00,
2013-01-09 20:54:00,43.0,42.2,30.38,SW,228,0.0,0.0,97,0.00,,CLR,0.00,VWS V12.08,2013-01-10 01:54:00,
2013-01-09 20:59:00,43.0,42.2,30.38,SW,226,0.0,0.0,97,0.00,,CLR,0.00,VWS V12.08,2013-01-10 01:59:00,
2013-01-09 21:04:00,42.8,42.0,30.38,SW,235,0.0,0.0,97,0.00,,CLR,0.00,VWS V12.08,2013-01-10 02:04:00,
2013-01-09 21:09:00,43.0,42.2,30.38,WSW,244,0.0,0.0,97,0.00,,CLR,0.00,VWS V12.08,2013-01-10 02:09:00,
2013-01-09 21:14:00,42.8,42.0,30.38,SW,235,0.0,0.0,97,0.00,,CLR,0.00,VWS V12.08,2013-01-10 02:14:00,
2013-01-09 21:20:00,43.0,42.5,30.38,WSW,250,0.0,0.0,98,0.00,,CLR,0.00,VWS V12.08,2013-01-10 02:20:00,
2013-01-09 21:25:00,43.0,42.5,30.38,SW,230,0.0,0.0,98,0.00,,CLR,0.00,VWS V12.08,2013-01-10 02:25:00,
2013-01-09 21:30:00,43.2,42.9,30.38,WSW,243,0.0,0.0,99,0.00,,CLR,0.00,VWS V12.08,2013-01-10 02:30:00,
2013-01-09 21:35:00,43.2,42.9,30.38,SW,235,0.0,0.0,99,0.00,,CLR,0.00,VWS V12.08,2013-01-10 02:35:00,
2013-01-09 21:40:00,43.0,42.8,30.38,SW,235,0.0,0.0,99,0.00,,CLR,0.00,VWS V12.08,2013-01-10 02:40:00,
2013-01-09 21:45:00,43.0,42.8,30.38,WSW,243,0.0,0.0,99,0.00,,CLR,0.00,VWS V12.08,2013-01-10 02:45:00,
2013-01-09 21:50:00,42.8,42.6,30.38,SW,234,0.0,0.0,99,0.00,,CLR,0.00,VWS V12.08,2013-01-10 02:50:00,
2013-01-09 21:55:00,43.0,43.0,30.38,WSW,245,0.0,0.0,100,0.00,,CLR,0.00,VWS V12.08,2013-01-10 02:55:00,
2013-01-09 22:00:00,43.0,43.0,30.41,SW,236,0.0,0.0,100,0.00,,CLR,0.04,VWS V12.08,2013-01-10 03:00:00,
2013-01-09 22:05:00,42.8,42.8,30.41,SW,228,0.0,0.0,100,0.00,,CLR,0.00,VWS V12.08,2013-01-10 03:05:00,
2013-01-09 22:10:00,42.7,42.7,30.41,WSW,241,0.0,0.0,100,0.00,,CLR,0.00,VWS V12.08,2013-01-10 03:10:00,
2013-01-09 22:15:00,42.7,42.7,30.41,SW,226,0.0,0.0,100,0.00,,CLR,0.00,VWS V12.08,2013-01-10 03:15:00,
2013-01-09 22:20:00,42.5,42.5,30.41,SW,227,0.0,0.0,100,0.00,,CLR,0.00,VWS V12.08,2013-01-10 03:20:00,
2013-01-09 22:25:00,42.7,42.7,30.41,WSW,241,0.0,0.0,100,0.00,,CLR,0.00,VWS V12.08,2013-01-10 03:25:00,
2013-01-09 22:30:00,42.7,42.7,30.41,SW,232,0.0,0.0,100,0.00,,CLR,0.00,VWS V12.08,2013-01-10 03:30:00,
2013-01-09 22:35:00,42.5,42.5,30.41,SW,224,0.0,0.0,100,0.00,,CLR,0.00,VWS V12.08,2013-01-10 03:35:00,
2013-01-09 22:40:00,42.5,42.5,30.41,SW,229,0.0,0.0,100,0.00,,CLR,0.00,VWS V12.08,2013-01-10 03:40:00,
2013-01-09 22:45:00,42.5,42.5,30.41,SW,234,0.0,0.0,100,0.00,,CLR,0.00,VWS V12.08,2013-01-10 03:45:00,
2013-01-09 22:50:00,42.3,42.3,30.41,SW,220,0.0,0.0,100,0.00,,,0.00,VWS V12.08,2013-01-10 03:50:00,
2013-01-09 22:55:00,42.3,42.3,30.41,SW,220,0.0,0.0,100,0.00,,,0.00,VWS V12.08,2013-01-10 03:55:00,
2013-01-09 23:00:00,42.1,42.1,30.41,WSW,238,0.0,0.0,100,0.00,,,0.04,VWS V12.08,2013-01-10 04:00:00,
2013-01-09 23:05:00,42.3,42.3,30.41,SW,218,0.0,0.0,100,0.00,,,0.00,VWS V12.08,2013-01-10 04:05:00,
2013-01-09 23:10:00,42.3,42.3,30.41,WSW,237,0.0,0.0,100,0.00,,,0.00,VWS V12.08,2013-01-10 04:10:00,
2013-01-09 23:15:00,42.3,42.3,30.44,SW,221,0.0,0.0,100,0.00,,,0.00,VWS V12.08,2013-01-10 04:15:00,
2013-01-09 23:20:00,42.1,42.1,30.44,SW,235,0.0,0.0,100,0.00,,,0.00,VWS V12.08,2013-01-10 04:20:00,
2013-01-09 23:25:00,42.1,42.1,30.44,SW,232,0.0,0.0,100,0.00,,,0.00,VWS V12.08,2013-01-10 04:25:00,
2013-01-09 23:30:00,41.9,41.9,30.44,SW,231,0.0,0.0,100,0.00,,,0.00,VWS V12.08,2013-01-10 04:30:00,
2013-01-09 23:35:00,42.1,42.1,30.44,SW,223,0.0,0.0,100,0.00,,,0.00,VWS V12.08,2013-01-10 04:35:00,
2013-01-09 23:40:00,41.9,41.9,30.44,SW,227,0.0,0.0,100,0.00,,,0.00,VWS V12.08,2013-01-10 04:40:00,
2013-01-09 23:45:00,41.8,41.8,30.41,SW,227,0.0,0.0,100,0.00,,,0.00,VWS V12.08,2013-01-10 04:45:00,
2013-01-09 23:50:00,41.6,41.6,30.41,SW,222,0.0,0.0,100,0.00,,,0.00,VWS V12.08,2013-01-10 04:50:00,
2013-01-09 23:55:00,41.6,41.6,30.41,SW,228,0.0,0.0,100,0.00,,,0.00,VWS V12.08,2013-01-10 04:55:00,